Regional Weather Roundup
Issued by NWS

Home | Current Version | Previous Version | Graphics & Text | Print | Product List | Glossary On
Versions: 1 2 3 4 5 6 7 8 9 10 11 12 13 14 15 16 17 18 19 20 21 22 23 24 25 26 27 28 29 30 31 32 33 34 35 36 37 38 39 40 41 42 43 44 45 46 47 48 49 50
209
ASUS45 KBOU 162310
RWRCO

WEATHER ROUNDUP FOR COLORADO
NATIONAL WEATHER SERVICE DENVER/BOULDER CO
400 PM MST TUE JAN 16 2018

NOTE: "FAIR" INDICATES FEW OR NO CLOUDS BELOW 12000 FEET WITH NO
SIGNIFICANT WEATHER AND/OR OBSTRUCTIONS TO VISIBILITY.

COZ001>005-013-030-031-170000-
...NORTHWEST COLORADO...

CITY           SKY/WX    TMP DP  RH WIND       PRES   REMARKS
CRAIG          FAIR      28   6  39 E5        30.32F WCI  23
HAYDEN         NOT AVBL
MEEKER         FAIR      36   8  31 CALM      30.29F
RABBIT EARS PA FAIR      21   5  49 NW5       30.28F WCI  15
STEAMBOAT SPGS NOT AVBL
WALDEN         FAIR      27  -2  28 CALM      30.31S
$$

COZ006>008-011-170000-
...WEST CENTRAL VALLEYS...

CITY           SKY/WX    TMP DP  RH WIND       PRES   REMARKS
GRAND JUNCTION FAIR      43  14  31 S5        30.31F
MONTROSE       FAIR      39  14  36 NW3       30.32F
EAGLE          FAIR      33   1  25 CALM      30.35F
RIFLE          FAIR      40  10  29 CALM      30.31F
DELTA          FAIR      44  14  29 CALM      30.32S
NUCLA          FAIR      43  12  28 NE5       30.34S
$$

COZ017>023-064>068-170000-
...SOUTHWEST COLORADO...

CITY           SKY/WX    TMP DP  RH WIND       PRES   REMARKS
DURANGO        FAIR      39  21  48 W6        30.30F
CORTEZ         FAIR      42  22  44 S8        30.30F
PAGOSA SPRINGS FAIR      38  17  41 S5        30.31S
TELLURIDE      FAIR      35   2  24 W9        30.31S WCI  28
WOLF CREEK PAS FAIR      21  16  79 SW9       30.36R WCI  11
$$

COZ009-010-012-014-032>034-037-058>063-170000-
...CENTRAL COLORADO...

CITY           SKY/WX    TMP DP  RH WIND       PRES   REMARKS
ASPEN          FAIR      34   4  28 NW6       30.28S WCI  29
BUENA VISTA    FAIR      37  -1  20 SE6       30.25S
COPPER MTN     NOT AVBL
BERTHOUD PASS  FAIR      12   0  57 NW23G32   30.27S WCI  -7
COTTONWOOD PAS   N/A     37  -6  15 E3        30.26
GUNNISON         N/A    N/A N/A N/A MISG        N/A
KREMMLING      FAIR      27   3  36 CALM      30.37F
LEADVILLE      FAIR      30 -10  17 N8        30.27R WCI  22
MONARCH PASS   FAIR      23   3  42 SW18      30.39S WCI   9
SALIDA         FAIR      39   5  24 SE3       30.33R
SUNLIGHT       FAIR      27 -26   9 SW5       30.35S WCI  21
WILKERSON PASS FAIR      28 -17  13 W3        30.30R
$$

COZ069>075-170000-
...SAN LUIS VALLEY/SANGRE DE CRISTO MOUNTAINS...

CITY           SKY/WX    TMP DP  RH WIND       PRES   REMARKS
ALAMOSA        FAIR      31  13  47 W5        30.31S WCI  26
DEL NORTE      FAIR      29  12  49 CALM      30.31F
LA VETA PASS   FAIR      23  18  80 SW13        N/A  WCI  11
SAGUACHE       FAIR      30  14  51 CALM      30.31F
$$

COZ035-036-038>040-170000-
...NORTHERN COLORADO FRONT RANGE...

CITY           SKY/WX    TMP DP  RH WIND       PRES   REMARKS
DENVER INTL AP FAIR      33  -4  20 SE7       30.30F WCI  27
DMNS CITY PARK NOT AVBL
AURORA         PTCLDY    34  -1  22 SE7       30.30F WCI  28
FRONT RANGE AP NOT AVBL
ERIE MUNI ARPT FAIR      36   1  23 SE7       30.36S
BOULDER MUN AP FAIR      32  19  59 N3        30.30S
CENTENNIAL     FAIR      36  -3  19 E6        30.28F
BROOMFIELD     PTCLDY    36  -4  18 S6        30.30S
FORT COLLINS   FAIR      26  16  65 SE7       30.32F WCI  18
LONGMONT       FAIR      35  16  45 CALM      30.33S
$$

COZ041-046-047-076>085-087-088-170000-
...PIKES PEAK/PALMER DIVIDE AND SOUTHERN FOOTHILLS...

CITY           SKY/WX    TMP DP  RH WIND       PRES   REMARKS
COLO. SPRINGS  FAIR      29   5  36 S12       30.32F WCI  19
A. F. ACADEMY  FAIR      30   8  40 S9        30.30R WCI  21
SCHRIEVER AFB  FAIR      26   6  42 SW8       30.33S WCI  18
CHEYENNE MTN   FAIR      24   7  46 SE8       30.23F WCI  16
ELLICOTT         N/A    N/A N/A N/A S9        30.32S
FALCON         FAIR      29   4  35 SW8       30.31S WCI  21
FORT CARSON    FAIR      30   4  33 S13       30.31F WCI  20
LIMON          FAIR      29   0  28 S9        30.33F WCI  20
MONUMENT HILL  FAIR      30   3  31 SE7       30.29S WCI  23
CANON CITY     FAIR      34  14  44 E6        30.34S WCI  29
WALSENBURG     FAIR      36  18  48 E6        30.31F
TRINIDAD       FAIR      33  10  38 SE6       30.33F WCI  28
$$

COZ042>045-048>051-090-091-170000-
...NORTHEAST COLORADO...

CITY           SKY/WX    TMP DP  RH WIND       PRES   REMARKS
GREELEY ARPT   FAIR      28  11  48 SE6       30.34F WCI  22
AKRON          FAIR      27   3  35 S8        30.35F WCI  19
BURLINGTON     FAIR      27   0  31 S10       30.41F WCI  17
WRAY           FAIR      28  -4  24 S6        30.44F WCI  22
YUMA           FAIR      27   0  31 S6        30.39F WCI  20
STERLING       FAIR      30   1  29 S7        30.37F WCI  23
HOLYOKE        FAIR      30   7  37 S9        30.42F WCI  22
FORT MORGAN    FAIR      30   1  28 SE5       30.35F WCI  25
$$

COZ086-089-092>099-170000-
...SOUTHEAST COLORADO...

CITY           SKY/WX    TMP DP  RH WIND       PRES   REMARKS
PUEBLO         FAIR      31  15  52 SE9       30.37F WCI  23
LA JUNTA       FAIR      32   0  25 SE3       30.41F
LAMAR          FAIR      30  -4  23 CALM      30.44F
SPRINGFIELD      N/A     28   0  29 S10       30.42F WCI  19
$$




USA.gov is the U.S. government's official web portal to all federal, state and local government web resources and services.